Weather History for Whiting Fld NAS, FL

Change the Weather History Date:

Sunday, January 20, 2013

  Actual Average Record
Temperature  
Mean Temperature 54 °F -  
Max Temperature 68 °F 59 °F 73 °F (1999)
Min Temperature 39 °F 40 °F 26 °F (2008)
Degree Days  
Heating Degree Days 12    
Growing Degree Days 4 (Base 50)    
Moisture  
Dew Point 40 °F    
Average Humidity 66    
Maximum Humidity 86    
Minimum Humidity 35    
Precipitation  
Precipitation 0.00 in - - ()
Sea Level Pressure  
Sea Level Pressure 30.16 in    
Wind  
Wind Speed 3 mph (NW)    
Max Wind Speed 8 mph    
Max Gust Speed -    
Visibility 10 miles    
Events Rain    
Averages and records for this station are not official NWS values.
T = Trace of Precipitation, MM = Missing Value Source: NWS Daily Summary

Daily Weather History Graph

Daily Weather History Graph

Search for Another Location

Airport:

Trip Planner

Search our weather history database for the weather conditions in past years. The results will help you decide how hot, cold, wet, or windy it might be!

Date:

Astronomy

Jan. 20, 2013 Rise Set
Actual Time 6:44 AM CST 5:13 PM CST
Civil Twilight 6:19 AM CST 5:39 PM CST
Nautical Twilight 5:49 AM CST 6:08 PM CST
Astronomical Twilight 5:20 AM CST 6:37 PM CST
Moon 12:13 PM CST (1/20) 1:19 AM CST (1/20)
Length of Visible Light 11h 20m
Length of Day
10h 28m
Waxing Gibbous, 66% of the Moon is Illuminated
Jan 20
Waxing Gibbous
Jan 26
Full
Feb 3
Last Quarter
Feb 10
New
Feb 17
First Quarter

Hourly Weather History & Observations

Time (CST) Temp. Windchill Dew Point Humidity Pressure Visibility Wind Dir Wind Speed Gust Speed Precip Events Conditions
12:56 AM 43.0 °F - 39.0 °F 86% 30.22 in 10.0 mi Calm Calm - 0.00 in   Clear
1:56 AM 44.1 °F 42.5 °F 39.0 °F 82% 30.21 in 10.0 mi NNW 3.5 mph - N/A   Clear
2:56 AM 42.1 °F - 37.9 °F 85% 30.20 in 9.0 mi Calm Calm - N/A   Clear
3:56 AM 39.9 °F - 36.0 °F 86% 30.20 in 7.0 mi Calm Calm - N/A   Clear
4:56 AM 43.0 °F 39.5 °F 37.9 °F 82% 30.20 in 10.0 mi North 5.8 mph - 0.00 in   Clear
5:56 AM 42.1 °F - 36.0 °F 79% 30.21 in 10.0 mi Calm Calm - N/A   Clear
6:56 AM 42.1 °F 39.2 °F 37.0 °F 82% 30.22 in 9.0 mi North 4.6 mph - N/A   Clear
7:56 AM 48.0 °F - 41.0 °F 77% 30.22 in 10.0 mi North 3.5 mph - N/A   Clear
8:56 AM 55.0 °F - 44.1 °F 67% 30.24 in 10.0 mi NNW 4.6 mph - 0.00 in Rain Light Rain
9:56 AM 60.1 °F - 43.0 °F 53% 30.24 in 10.0 mi Variable 5.8 mph - 0.00 in   Clear
10:56 AM 63.0 °F - 42.1 °F 46% 30.21 in 10.0 mi North 4.6 mph - N/A   Clear
11:56 AM 64.9 °F - 42.1 °F 43% 30.17 in 10.0 mi NW 8.1 mph - N/A   Clear
12:56 PM 66.0 °F - 39.9 °F 38% 30.14 in 10.0 mi Variable 4.6 mph - N/A   Clear
1:56 PM 68.0 °F - 39.9 °F 36% 30.11 in 10.0 mi NW 5.8 mph - N/A   Clear
2:56 PM 68.0 °F - 39.0 °F 35% 30.10 in 10.0 mi West 5.8 mph - N/A   Clear
3:56 PM 66.9 °F - 39.9 °F 37% 30.10 in 10.0 mi WNW 6.9 mph - N/A   Partly Cloudy
4:56 PM 63.0 °F - 39.0 °F 41% 30.10 in 10.0 mi West 3.5 mph - N/A   Partly Cloudy
5:56 PM 52.0 °F - 41.0 °F 66% 30.11 in 10.0 mi NW 3.5 mph - N/A   Clear
6:56 PM 50.0 °F - 43.0 °F 77% 30.11 in 10.0 mi NW 3.5 mph - N/A   Clear
7:56 PM 48.0 °F - 41.0 °F 77% 30.12 in 10.0 mi SW 5.8 mph - N/A   Clear
8:56 PM 50.0 °F - 42.1 °F 74% 30.13 in 10.0 mi West 4.6 mph - N/A   Clear
9:56 PM 48.0 °F - 42.1 °F 80% 30.13 in 10.0 mi NW 3.5 mph - N/A   Clear
10:56 PM 48.0 °F - 42.1 °F 80% 30.13 in 10.0 mi WNW 4.6 mph - N/A   Clear
11:56 PM 46.0 °F 44.8 °F 39.9 °F 79% 30.12 in 9.0 mi NW 3.5 mph - N/A   Clear